Regional Weather Roundup
Issued by NWS

Home | Current Version | Previous Version | Text Only | Print | Product List | Glossary On
Versions: 1 2 3 4 5 6 7 8 9 10 11 12 13 14 15 16 17 18 19 20 21 22 23 24 25 26 27 28 29 30 31 32 33 34 35 36 37 38 39 40 41 42 43 44 45 46 47 48 49 50
324
ASUS43 KDTX 271701
RWRMI
MICHIGAN HOURLY REGIONAL WEATHER ROUNDUP
NATIONAL WEATHER SERVICE DETROIT/PONTIAC MI
100 PM EDT SAT AUG 27 2016

NOTE: "FAIR" INDICATES FEW OR NO CLOUDS BELOW 12,000 FEET WITH NO
SIGNIFICANT WEATHER AND/OR OBSTRUCTION TO VISIBILITY.

MIZ047>049-052>055-059>063-066>070-074>076-081>083-271800-
SOUTHEAST LOWER MICHIGAN

CITY           SKY/WX    TMP DP  RH WIND       PRES   REMARKS
ADRIAN         CLOUDY    79  70  74 S6        30.11F THUNDER
ALMA           LGT RAIN  68  67  98 SE8       30.14F
ANN ARBOR      CLOUDY    81  68  64 E9        30.10F
CARO           RAIN      73  70  91 NW7       30.16R
DETROIT CITY   CLOUDY    83  67  58 SE12      30.12F
DETROIT        CLOUDY    83  67  58 SE9       30.12F
FLINT          CLOUDY    74  67  78 NW9       30.15R
GROSSE ILE     CLOUDY    80  67  63 S8        30.11F
HILLSDALE      CLOUDY    69  67  91 CALM      30.14S
HOWELL         HVY RAIN  74  67  78 NW16G22   30.15R

CITY           SKY/WX    TMP DP  RH WIND       PRES   REMARKS
JACKSON        LGT RAIN  68  67  96 CALM      30.15S
LAMBERTVILLE   MOSUNNY   85  70  61 SE5       30.10F
LANSING        LGT RAIN  65  63  93 E8        30.13F
LAPEER         CLOUDY    78  68  73 SE5       30.14F
MASON          LGT RAIN  66  64  94 CALM      30.15F
MONROE         CLOUDY    81  69  68 SE6       30.10F
MT. CLEMENS    PTSUNNY   81  70  69 SE14      30.12F
PONTIAC        CLOUDY    81  64  56 SE10G23   30.12F
PORT HURON     MOSUNNY   81  68  65 S10G17    30.14F
TRI CITIES     RAIN      68  68 100 SE6       30.17F FOG
MIDLAND        RAIN      68  67  98 E6        30.13F
TROY           PTSUNNY   84  65  52 SE6       30.14F
SAGINAW HB     HVY RAIN  68  64  88 CALM      30.17S VSB 1
$$
MIZ043>046-050>051-056>058-064>065-071>073-077>080-271800-
SOUTHWEST LOWER MICHIGAN

CITY           SKY/WX    TMP DP  RH WIND       PRES   REMARKS
BATTLE CREEK   RAIN      64  64 100 E9        30.14F FOG
BENTON HARBOR  CLOUDY    76  71  85 SE10      30.06F
BIG RAPIDS     LGT RAIN  68  67  95 SE8       30.09F
COLDWATER      RAIN      67  67 100 NE3       30.14F
FREMONT        CLOUDY    68  66  94 SE8       30.07F
HOLLAND        CLOUDY    74  69  85 SE13      30.07F
GRAND RAPIDS   CLOUDY    69  65  86 SE13      30.08F
IONIA          LGT RAIN  64  63  95 E8        30.09F
KALAMAZOO      LGT RAIN  67  64  90 E7        30.10F FOG
LUDINGTON      CLOUDY    67  66  96 SE10      30.06F
MARSHALL       CLOUDY    68  66  94 SW3       30.16R
MOUNT PLEASANT RAIN      68  67  96 E7        30.12F
MUSKEGON       CLOUDY    73  69  87 SE12      30.07F
SOUTH HAVEN    CLOUDY    75  72  90 SE8       30.07S
$$
MIZ016>042-271800-
NORTHERN LOWER MICHIGAN

CITY           SKY/WX    TMP DP  RH WIND       PRES   REMARKS
ALPENA         LGT RAIN  69  64  84 S9        30.17F
BEAVER ISLAND  HVY RAIN  64  64  97 SE6       30.13F
BELLAIRE       LGT RAIN  64  60  86 CALM      30.13F
CADILLAC       DRIZZLE   64  62  91 E3        30.12F
CHARLEVOIX     LGT RAIN  65  64  96 E3        30.16F
FRANKFORT      DRIZZLE   65  62  90 E3        30.09F
GAYLORD        LGT RAIN  63  58  83 VRB3      30.15F
GRAYLING       LGT RAIN  64  62  93 E10       30.15F
HARBOR SPRINGS LGT RAIN  64  63  96 E6        30.14F
HOUGHTON LAKE  LGT RAIN  65  63  93 E8        30.15F
MANISTEE       CLOUDY    67  65  93 E10       30.07F
OSCODA         LGT RAIN  70  62  76 CALM      30.17S
PELLSTON       RAIN      65  62  90 SE5       30.16F FOG
ROGERS CITY    LGT RAIN  68  64  87 SE3       30.18S
TRAVERSE CITY  LGT RAIN  66  61  84 E5        30.11F
$$
MIZ007>008-015-271800-
EASTERN UPPER MICHIGAN

CITY           SKY/WX    TMP DP  RH WIND       PRES   REMARKS
KINROSS        LGT RAIN  64  58  80 E7        30.17F
MACKINAC ISLAN LGT RAIN  64  64 100 E7        30.15F
NEWBERRY       LGT RAIN  63  62  97 SE5       30.14F
S. S. MARIE    LGT RAIN  64  58  80 E5        30.17F
$$
MIZ004>006-011>014-085-271800-
CENTRAL UPPER MICHIGAN

CITY           SKY/WX    TMP DP  RH WIND       PRES   REMARKS
MANISTIQUE     LGT RAIN  65  62  93 SE5       30.12F
ESCANABA       CLOUDY    67  62  84 S8        30.11F
MENOMINEE      CLOUDY   N/A N/A N/A SE7         N/A
SAWYER-GWINN   CLOUDY    68  57  68 S9        30.12F
$$
MIZ001>003-009>011-084-271800-
WESTERN UPPER MICHIGAN

CITY           SKY/WX    TMP DP  RH WIND       PRES   REMARKS
IRON MOUNTAIN  CLOUDY    70  56  61 S8        30.10F
HOUGHTON       SUNNY     68  49  50 SE7       30.10F
IRONWOOD       CLOUDY    68  54  60 SE6       30.09F
$$

ABBREVIATIONS USED IN REMARKS
   TC - TEMPERATURE IN CELSIUS
  WCI - WIND CHILL INDEX
   HX - HEAT INDEX
  VSB - VISIBILITY





USA.gov is the U.S. government's official web portal to all federal, state and local government web resources and services.